QPF
0.00 0.00 0.00 0.00 0.00 0.00 0.00 0.00 0.00 0.00 0.00 0.00 0.00 0.00 0.00 0.00 0.00 0.00 0.00 0.00 0.00 0.00 0.00 0.00 0.00 0.00 0.00 0.00 0.00 0.00 0.00 0.00 0.00 0.00 0.00 0.00 0.00 0.00 0.00 0.00 0.00 0.00 0.00 0.00 0.00
0.00 0.00 0.00 0.00 0.00 0.00 0.00 0.00 0.00 0.00 0.00 0.00 0.00 0.00 0.00 0.00 0.00 0.00 0.00 0.00 0.00 0.00 0.00 0.00 0.00 0.00 0.00 0.00 0.00 0.00 0.00 0.00 0.00 0.00 0.00 0.00 0.00 0.00 0.00 0.00 0.00 0.00 0.00 0.00 0.00
0.00 0.00 0.00 0.00 0.00 0.00 0.00 0.00 0.01 0.01 0.00 0.00 0.00 0.00 0.00 0.00 0.00 0.00 0.00 0.00 0.00 0.00 0.00 0.00 0.00 0.00 0.00 0.00 0.00 0.00 0.00 0.00 0.00 0.00 0.00 0.00 0.00 0.00 0.00 0.00 0.00 0.00 0.00 0.00 0.00
0.00 0.00 0.00 0.00 0.00 0.00 0.00 0.00 0.01 0.01 0.00 0.00 0.00 0.00 0.00 0.00 0.00 0.00 0.00 0.00 0.00 0.00 0.00 0.00 0.00 0.00 0.00 0.00 0.00 0.00 0.00 0.00 0.00 0.00 0.00 0.00 0.00 0.00 0.00 0.00 0.00 0.00 0.00 0.00 0.00
0.00 0.00 0.00 0.00 0.00 0.00 0.00 0.00 0.00 0.00 0.00 0.00 0.00 0.00 0.00 0.00 0.00 0.00 0.00 0.00 0.00 0.00 0.00 0.00 0.00 0.00 0.00 0.00 0.00 0.00 0.00 0.00 0.00 0.00 0.00 0.00 0.00 0.00 0.00 0.00 0.00 0.00 0.00 0.00 0.00
0.00 0.00 0.00 0.00 0.00 0.00 0.00 0.00 0.00 0.00 0.00 0.00 0.00 0.00 0.00 0.00 0.00 0.00 0.00 0.00 0.00 0.00 0.00 0.00 0.00 0.00 0.00 0.00 0.00 0.00 0.00 0.00 0.00 0.00 0.00 0.00 0.00 0.00 0.00 0.00 0.00 0.00 0.00 0.00 0.00
0.00 0.00 0.00 0.00 0.00 0.00 0.00 0.00 0.00 0.00 0.00 0.00 0.00 0.00 0.00 0.00 0.00 0.00 0.00 0.00 0.00 0.00 0.00 0.00 0.00 0.00 0.00 0.00 0.00 0.00 0.00 0.00 0.00 0.00 0.00 0.00 0.00 0.00 0.00 0.00 0.00 0.00 0.00 0.00 0.00
0.00 0.00 0.00 0.00 0.00 0.00 0.00 0.00 0.00 0.00 0.00 0.00 0.00 0.00 0.00 0.00 0.00 0.00 0.00 0.00 0.00 0.00 0.00 0.00 0.00 0.00 0.00 0.00 0.00 0.00 0.00 0.00 0.00 0.00 0.00 0.00 0.00 0.00 0.00 0.00 0.00 0.00 0.00 0.00 0.00
0.00 0.00 0.00 0.00 0.00 0.00 0.00 0.00 0.00 0.00 0.00 0.00 0.00 0.00 0.00 0.00 0.00 0.00 0.00 0.00 0.00 0.00 0.00 0.00 0.00 0.00 0.00 0.00 0.00 0.00 0.00 0.00 0.00 0.00 0.00 0.00 0.00 0.00 0.00 0.00 0.00 0.00 0.00 0.00 0.00
0.00 0.00 0.00 0.00 0.00 0.00 0.00 0.00 0.00 0.00 0.00 0.00 0.00 0.00 0.00 0.00 0.00 0.00 0.00 0.00 0.00 0.00 0.00 0.00 0.00 0.00 0.00 0.00 0.00 0.00 0.00 0.00 0.00 0.00 0.00 0.00 0.00 0.00 0.00 0.00 0.00 0.00 0.00 0.00 0.00
0.00 0.00 0.00 0.00 0.00 0.00 0.00 0.00 0.00 0.00 0.00 0.00 0.00 0.00 0.00 0.00 0.00 0.00 0.00 0.00 0.00 0.00 0.00 0.00 0.00 0.00 0.00 0.00 0.00 0.00 0.00 0.00 0.00 0.00 0.00 0.00 0.00 0.00 0.00 0.00 0.00 0.00 0.00 0.00 0.00
0.00 0.00 0.00 0.00 0.00 0.00 0.00 0.00 0.00 0.00 0.00 0.00 0.00 0.00 0.00 0.00 0.00 0.00 0.00 0.00 0.00 0.00 0.00 0.00 0.00 0.00 0.00 0.00 0.00 0.00 0.00 0.00 0.00 0.00 0.00 0.00 0.00 0.00 0.00 0.00 0.00 0.00 0.00 0.00 0.00
0.00 0.00 0.00 0.00 0.00 0.00 0.00 0.00 0.00 0.00 0.00 0.00 0.00 0.00 0.00 0.00 0.00 0.00 0.00 0.00 0.00 0.00 0.00 0.00 0.00 0.00 0.00 0.00 0.00 0.00 0.00 0.00 0.00 0.00 0.00 0.00 0.00 0.00 0.00 0.00 0.00 0.00 0.00 0.00 0.00
0.00 0.00 0.00 0.00 0.00 0.00 0.00 0.00 0.00 0.00 0.00 0.00 0.00 0.00 0.00 0.00 0.00 0.00 0.00 0.00 0.00 0.00 0.00 0.00 0.00 0.00 0.00 0.00 0.00 0.00 0.00 0.00 0.00 0.00 0.00 0.00 0.00 0.00 0.00 0.00 0.00 0.00 0.00 0.00 0.00
0.00 0.00 0.00 0.00 0.00 0.00 0.00 0.00 0.00 0.00 0.00 0.00 0.00 0.00 0.00 0.00 0.00 0.00 0.00 0.00 0.00 0.00 0.00 0.00 0.00 0.00 0.00 0.00 0.00 0.00 0.00 0.00 0.00 0.00 0.00 0.00 0.00 0.00 0.00 0.00 0.00 0.00 0.00 0.00 0.00
0.00 0.00 0.00 0.00 0.00 0.00 0.00 0.00 0.00 0.00 0.00 0.00 0.00 0.00 0.00 0.00 0.00 0.00 0.00 0.00 0.00 0.00 0.00 0.00 0.00 0.00 0.00 0.00 0.00 0.00 0.00 0.00 0.00 0.00 0.00 0.00 0.00 0.00 0.00 0.00 0.00 0.00 0.00 0.00 0.00
0.00 0.00 0.00 0.00 0.00 0.00 0.00 0.00 0.00 0.00 0.00 0.00 0.00 0.00 0.00 0.00 0.00 0.00 0.00 0.00 0.00 0.00 0.00 0.00 0.00 0.00 0.00 0.00 0.00 0.00 0.00 0.00 0.00 0.00 0.00 0.00 0.00 0.00 0.00 0.00 0.00 0.00 0.00 0.00 0.00
0.00 0.00 0.00 0.00 0.00 0.00 0.00 0.00 0.00 0.00 0.00 0.00 0.00 0.00 0.00 0.00 0.00 0.00 0.00 0.00 0.00 0.00 0.00 0.00 0.00 0.00 0.00 0.00 0.00 0.00 0.00 0.00 0.01 0.01 0.00 0.00 0.00 0.00 0.00 0.00 0.00 0.00 0.00 0.00 0.00
0.00 0.00 0.00 0.00 0.00 0.00 0.00 0.00 0.00 0.00 0.00 0.00 0.00 0.00 0.00 0.00 0.00 0.00 0.00 0.00 0.00 0.00 0.00 0.00 0.00 0.00 0.00 0.00 0.00 0.00 0.00 0.00 0.00 0.00 0.00 0.00 0.00 0.00 0.00 0.00 0.00 0.00 0.00 0.00 0.00
0.00 0.00 0.00 0.00 0.00 0.00 0.00 0.00 0.00 0.00 0.00 0.00 0.00 0.00 0.00 0.00 0.00 0.00 0.00 0.00 0.00 0.00 0.00 0.00 0.00 0.00 0.00 0.00 0.00 0.00 0.00 0.00 0.00 0.00 0.00 0.00 0.00 0.00 0.00 0.00 0.00 0.00 0.00 0.00 0.00
0.00 0.00 0.00 0.00 0.00 0.00 0.00 0.00 0.00 0.00 0.00 0.00 0.00 0.00 0.00 0.00 0.00 0.00 0.00 0.00 0.00 0.00 0.00 0.00 0.00 0.00 0.00 0.00 0.00 0.00 0.00 0.00 0.00 0.00 0.00 0.00 0.00 0.00 0.00 0.00 0.00 0.00 0.00 0.00 0.00
0.00 0.00 0.00 0.00 0.00 0.00 0.00 0.00 0.00 0.00 0.00 0.00 0.00 0.00 0.00 0.00 0.00 0.00 0.00 0.00 0.00 0.00 0.00 0.00 0.01 0.00 0.00 0.00 0.00 0.00 0.00 0.00 0.00 0.00 0.00 0.00 0.00 0.00 0.00 0.00 0.00 0.00 0.00 0.00 0.00
0.00 0.00 0.00 0.00 0.00 0.00 0.00 0.00 0.00 0.00 0.00 0.00 0.00 0.00 0.00 0.00 0.00 0.00 0.00 0.00 0.00 0.00 0.00 0.00 0.00 0.00 0.00 0.00 0.00 0.00 0.00 0.00 0.00 0.00 0.00 0.00 0.00 0.00 0.00 0.00 0.00 0.00 0.00 0.00 0.00
0.00 0.00 0.00 0.00 0.00 0.00 0.00 0.00 0.00 0.00 0.00 0.00 0.00 0.00 0.00 0.00 0.00 0.00 0.00 0.00 0.00 0.00 0.00 0.00 0.00 0.00 0.00 0.00 0.00 0.00 0.00 0.00 0.00 0.00 0.00 0.00 0.00 0.00 0.00 0.00 0.00 0.00 0.00 0.00 0.00
0.00 0.00 0.00 0.00 0.00 0.00 0.00 0.00 0.00 0.00 0.00 0.00 0.00 0.00 0.00 0.00 0.00 0.00 0.00 0.00 0.00 0.00 0.00 0.00 0.00 0.00 0.00 0.00 0.00 0.00 0.00 0.00 0.00 0.00 0.00 0.00 0.00 0.00 0.00 0.00 0.00 0.00 0.00 0.00 0.00
0.00 0.00 0.00 0.00 0.00 0.00 0.00 0.00 0.00 0.00 0.00 0.00 0.00 0.00 0.00 0.00 0.00 0.00 0.00 0.00 0.00 0.00 0.00 0.00 0.00 0.00 0.00 0.00 0.00 0.00 0.00 0.00 0.00 0.00 0.00 0.00 0.00 0.00 0.00 0.00 0.00 0.00 0.00 0.00 0.00
0.00 0.00 0.00 0.00 0.00 0.00 0.00 0.00 0.00 0.00 0.00 0.00 0.00 0.00 0.00 0.00 0.00 0.00 0.00 0.00 0.00 0.00 0.00 0.00 0.00 0.00 0.00 0.00 0.00 0.00 0.00 0.00 0.00 0.00 0.00 0.00 0.00 0.00 0.00 0.00 0.00 0.00 0.00 0.00 0.00
MSLP
1015.70 1015.41 1015.02 1014.65 1014.30 1014.05 1013.65 1013.44 1013.19 1013.01 1012.88 1012.80 1012.69 1012.52 1012.43 1012.36 1012.42 1012.34 1011.52 1010.49 1010.48 1010.78 1010.93 1010.59 1010.67 1010.63 1010.54 1010.11 1009.68 1009.29 1009.09 1007.81 1007.62 1007.18 1006.27 1005.19 1005.14 1005.18 1006.34 1007.46 1009.15 1010.83 1012.02 1012.96 1013.65
1015.74 1015.31 1014.92 1014.46 1014.08 1013.72 1013.41 1013.19 1013.02 1012.88 1012.76 1012.66 1012.47 1012.34 1012.25 1012.31 1012.30 1011.35 1010.42 1010.61 1010.75 1010.92 1010.98 1010.51 1010.33 1010.46 1010.39 1009.96 1009.67 1009.38 1008.68 1007.66 1007.26 1006.84 1006.79 1006.23 1005.37 1005.99 1006.88 1008.09 1009.93 1011.64 1012.91 1013.64 1014.49
1015.71 1015.29 1014.82 1014.31 1013.82 1013.41 1013.08 1012.80 1012.71 1012.56 1012.45 1012.33 1012.19 1012.16 1012.16 1012.26 1011.78 1010.54 1010.60 1010.75 1011.01 1011.13 1010.98 1010.38 1010.13 1010.26 1010.21 1009.53 1009.29 1008.92 1008.06 1007.77 1007.34 1007.30 1007.29 1007.14 1006.65 1006.36 1007.49 1008.72 1009.75 1011.07 1013.01 1014.16 1014.82
1015.60 1014.97 1014.45 1013.99 1013.55 1013.17 1012.77 1012.54 1012.36 1012.18 1012.05 1012.09 1012.05 1012.06 1012.05 1012.02 1011.41 1010.70 1010.79 1010.91 1011.03 1011.09 1010.93 1010.55 1010.29 1010.12 1009.86 1009.25 1008.76 1008.62 1008.03 1008.01 1007.49 1007.97 1007.90 1007.93 1007.60 1007.59 1008.42 1009.49 1010.21 1010.71 1012.28 1014.26 1015.31
1015.26 1014.72 1014.26 1013.78 1013.35 1012.94 1012.67 1012.37 1012.18 1011.92 1011.80 1011.89 1011.95 1012.09 1012.26 1011.61 1010.54 1010.80 1010.99 1011.00 1010.95 1010.79 1010.57 1010.37 1010.16 1009.93 1009.35 1008.76 1008.70 1008.23 1008.18 1007.68 1007.82 1008.27 1008.52 1008.56 1008.72 1008.82 1009.14 1010.06 1010.76 1011.88 1013.19 1014.34 1015.36
1015.06 1014.57 1014.10 1013.67 1013.23 1012.87 1012.55 1012.21 1011.94 1011.81 1011.71 1011.79 1011.79 1011.91 1012.00 1011.07 1010.53 1010.68 1010.77 1010.80 1010.68 1010.53 1010.19 1010.08 1009.78 1009.57 1009.28 1008.87 1008.49 1008.19 1007.99 1007.91 1008.24 1008.71 1009.14 1009.48 1009.35 1009.50 1009.73 1010.38 1011.30 1012.34 1013.58 1014.47 1015.31
1014.93 1014.45 1014.00 1013.52 1013.08 1012.71 1012.32 1011.95 1011.67 1011.63 1011.61 1011.68 1011.75 1011.80 1011.14 1010.68 1010.39 1010.37 1010.52 1010.45 1010.53 1010.47 1010.08 1009.88 1009.85 1010.00 1009.39 1009.37 1008.55 1008.74 1008.88 1008.52 1008.62 1009.05 1009.48 1010.08 1010.21 1009.99 1010.12 1010.76 1011.63 1012.56 1013.51 1014.59 1015.36
1014.86 1014.41 1013.94 1013.44 1013.00 1012.58 1012.20 1011.86 1011.51 1011.39 1011.53 1011.55 1011.63 1011.38 1010.52 1010.51 1010.40 1010.45 1010.24 1010.36 1010.52 1010.53 1010.44 1010.13 1010.24 1010.29 1009.95 1009.78 1009.51 1009.69 1009.78 1009.22 1008.59 1009.01 1009.94 1010.50 1010.53 1010.80 1010.84 1011.36 1011.98 1012.67 1013.49 1014.56 1015.50
1014.92 1014.32 1013.83 1013.30 1012.82 1012.47 1012.18 1011.85 1011.46 1011.36 1011.40 1011.48 1011.58 1011.13 1010.54 1010.67 1010.39 1010.43 1010.46 1010.17 1010.33 1010.48 1010.49 1010.44 1010.44 1010.23 1010.34 1010.44 1010.45 1009.98 1009.69 1009.46 1009.28 1009.03 1010.06 1010.81 1011.08 1011.63 1011.85 1011.98 1012.26 1012.90 1013.86 1014.85 1015.70
1014.94 1014.29 1013.75 1013.27 1012.84 1012.49 1012.18 1011.88 1011.61 1011.54 1011.46 1011.17 1010.90 1011.21 1010.61 1010.54 1010.51 1010.55 1010.45 1010.51 1010.30 1010.45 1010.67 1010.60 1010.61 1010.50 1010.64 1010.82 1010.63 1010.36 1010.25 1009.74 1009.71 1010.19 1010.47 1011.20 1011.88 1012.42 1012.55 1012.84 1013.33 1013.73 1014.47 1015.33 1016.12
1015.06 1014.34 1013.78 1013.27 1012.87 1012.43 1012.12 1011.95 1012.26 1011.83 1010.96 1011.14 1010.93 1010.51 1010.71 1010.76 1010.70 1010.43 1010.53 1010.33 1010.30 1010.48 1010.48 1010.43 1010.69 1010.77 1010.78 1010.49 1010.65 1010.82 1010.85 1010.49 1010.71 1011.07 1011.18 1011.67 1012.29 1012.70 1013.61 1014.26 1015.09 1015.41 1015.55 1015.88 1016.18
1015.20 1014.44 1013.83 1013.30 1012.84 1012.33 1011.86 1012.19 1013.43 1013.74 1012.19 1011.21 1010.96 1010.83 1010.98 1010.99 1010.53 1010.60 1010.51 1010.46 1010.22 1010.30 1010.25 1010.87 1011.04 1011.39 1011.26 1011.17 1011.31 1011.43 1011.60 1011.47 1011.44 1011.67 1011.98 1012.37 1013.40 1014.70 1015.63 1016.52 1017.15 1017.49 1017.63 1017.28 1016.93
1014.99 1014.39 1013.73 1013.24 1012.87 1012.75 1012.94 1013.64 1013.78 1013.51 1012.85 1011.51 1011.11 1011.11 1011.25 1011.17 1010.99 1011.12 1011.12 1010.58 1010.21 1010.21 1010.42 1011.07 1011.92 1012.02 1011.94 1011.99 1012.20 1012.39 1012.55 1012.46 1012.76 1012.75 1013.12 1013.67 1014.62 1015.99 1017.76 1018.27 1018.79 1019.33 1019.45 1019.15 1018.86
1014.87 1014.16 1013.68 1013.18 1013.27 1012.68 1013.24 1013.81 1013.74 1013.56 1012.73 1012.00 1011.19 1011.41 1011.15 1011.07 1011.32 1011.53 1011.48 1011.34 1010.59 1010.93 1011.18 1012.03 1012.58 1012.75 1012.86 1013.24 1013.56 1013.47 1013.54 1013.56 1013.73 1014.02 1014.48 1014.51 1015.72 1017.48 1018.88 1019.90 1020.68 1021.21 1021.03 1020.80 1020.39
1014.81 1014.20 1013.74 1013.42 1013.33 1012.99 1014.06 1013.78 1013.70 1013.62 1013.22 1012.55 1011.80 1011.57 1011.24 1011.58 1011.97 1011.82 1011.82 1011.42 1011.65 1012.02 1012.62 1013.54 1013.60 1013.86 1014.07 1014.86 1014.82 1014.76 1014.58 1014.59 1014.90 1015.28 1015.76 1015.90 1017.23 1018.22 1019.17 1020.81 1021.98 1022.39 1022.32 1021.87 1021.38
1014.70 1014.39 1013.66 1013.35 1013.14 1014.02 1013.93 1013.83 1013.81 1013.91 1013.65 1013.03 1012.57 1012.44 1012.23 1012.27 1012.52 1012.35 1012.57 1012.82 1012.80 1013.04 1013.63 1014.51 1015.02 1015.54 1015.76 1015.79 1015.74 1015.62 1015.59 1015.81 1016.14 1016.58 1016.97 1016.25 1017.34 1019.85 1021.15 1022.47 1022.91 1023.14 1022.96 1022.53 1022.06
1014.64 1014.37 1013.83 1013.67 1014.08 1013.94 1013.97 1013.84 1014.11 1014.14 1014.67 1014.62 1014.23 1013.94 1013.48 1013.63 1013.55 1013.95 1014.39 1015.07 1015.46 1015.35 1014.96 1015.50 1016.20 1016.75 1016.88 1016.68 1016.67 1016.68 1016.67 1017.23 1017.73 1017.96 1017.39 1016.99 1018.15 1021.22 1022.48 1023.08 1023.58 1023.69 1023.39 1022.94 1022.40
1014.64 1014.51 1013.95 1013.84 1013.86 1013.97 1013.84 1013.88 1014.89 1015.80 1016.00 1015.94 1015.59 1014.70 1014.54 1014.86 1014.79 1015.26 1015.63 1016.57 1017.06 1017.11 1016.79 1016.71 1017.62 1018.06 1018.17 1018.13 1017.99 1017.66 1017.86 1017.63 1017.36 1017.59 1017.91 1018.29 1019.88 1022.18 1023.05 1023.45 1023.77 1023.81 1023.77 1023.38 1022.92
1014.56 1014.10 1013.81 1013.72 1013.60 1013.97 1013.98 1014.99 1017.15 1017.74 1017.81 1017.28 1016.11 1015.57 1015.29 1015.65 1016.18 1016.25 1017.64 1018.29 1018.49 1018.54 1018.75 1018.29 1018.51 1019.08 1019.05 1019.06 1019.15 1018.87 1018.79 1018.84 1018.57 1018.25 1018.77 1019.82 1021.97 1023.02 1023.62 1024.04 1024.29 1024.24 1024.01 1023.77 1023.49
1014.41 1013.78 1014.11 1013.57 1013.28 1013.75 1014.54 1016.73 1018.06 1018.67 1018.57 1018.07 1017.28 1016.84 1016.90 1017.01 1017.37 1017.35 1018.56 1019.44 1019.38 1019.33 1019.30 1019.28 1019.34 1019.23 1019.61 1019.76 1019.85 1019.83 1019.92 1019.85 1019.54 1019.44 1019.51 1020.42 1022.24 1023.60 1024.42 1024.82 1024.90 1024.75 1024.54 1024.25 1024.03
1014.62 1013.90 1014.24 1013.40 1012.97 1014.15 1016.14 1017.86 1018.68 1019.01 1019.08 1018.91 1018.55 1018.39 1018.33 1018.43 1018.59 1018.57 1019.51 1020.34 1020.09 1019.75 1019.36 1019.57 1020.06 1020.15 1020.17 1021.18 1021.43 1021.10 1020.84 1020.85 1020.65 1020.36 1020.62 1021.71 1024.10 1024.97 1025.42 1025.68 1025.59 1025.41 1025.03 1024.69 1024.63
1014.91 1014.77 1014.81 1013.78 1014.63 1016.17 1018.03 1019.03 1019.57 1019.63 1019.69 1019.39 1019.38 1019.52 1019.61 1019.52 1019.45 1019.45 1019.99 1020.53 1020.53 1020.11 1019.94 1019.85 1020.49 1020.89 1021.94 1022.21 1022.41 1022.54 1022.59 1022.62 1022.69 1022.36 1022.15 1022.82 1025.45 1025.87 1026.17 1026.26 1026.15 1025.99 1025.46 1025.02 1024.95
1016.44 1015.84 1015.42 1014.59 1016.28 1017.72 1018.96 1019.81 1020.30 1020.28 1020.48 1020.31 1020.26 1020.46 1020.43 1020.35 1020.45 1020.29 1020.44 1020.86 1020.94 1020.81 1020.88 1020.99 1020.94 1021.75 1022.46 1023.08 1022.79 1023.02 1023.57 1024.11 1024.24 1024.25 1024.40 1024.75 1026.47 1026.61 1026.55 1026.62 1026.47 1026.32 1025.96 1025.75 1025.49
1017.33 1017.07 1016.69 1017.05 1018.18 1018.59 1019.34 1019.97 1020.39 1020.79 1020.91 1021.00 1020.98 1020.88 1021.06 1020.90 1020.98 1021.09 1021.11 1021.20 1021.33 1021.19 1021.22 1021.35 1021.68 1022.24 1022.79 1022.91 1022.79 1023.46 1024.03 1024.65 1025.21 1025.89 1026.22 1026.43 1027.06 1027.32 1027.44 1027.39 1026.96 1026.56 1026.08 1025.86 1025.56
1018.78 1019.68 1020.13 1019.14 1019.26 1019.59 1019.96 1020.37 1020.60 1020.99 1021.14 1021.35 1021.20 1021.69 1022.02 1022.09 1021.79 1021.63 1021.86 1021.51 1021.61 1021.63 1021.73 1022.11 1022.50 1022.44 1022.66 1022.62 1022.75 1023.42 1023.99 1024.76 1025.81 1026.66 1027.10 1027.61 1027.74 1027.81 1027.76 1027.75 1027.31 1026.67 1026.34 1025.96 1025.55
1021.34 1021.59 1021.24 1020.39 1020.23 1019.98 1020.32 1020.73 1021.07 1021.31 1021.69 1021.74 1021.99 1022.24 1022.42 1022.74 1023.08 1022.94 1022.92 1022.69 1022.68 1022.55 1022.57 1022.96 1023.14 1023.05 1023.07 1022.84 1022.88 1023.29 1023.80 1024.63 1025.59 1026.48 1027.09 1027.41 1027.94 1027.57 1027.48 1027.38 1027.29 1026.90 1026.47 1026.11 1025.71
1022.20 1022.26 1022.23 1021.05 1020.48 1020.41 1020.78 1021.06 1021.36 1021.66 1021.98 1022.16 1022.45 1022.57 1022.67 1023.26 1023.42 1023.33 1023.25 1023.22 1023.39 1023.69 1023.78 1023.87 1024.01 1023.91 1023.47 1023.31 1023.17 1023.38 1023.45 1024.25 1025.19 1025.78 1026.72 1027.11 1027.30 1027.25 1027.29 1027.17 1027.00 1026.67 1026.35 1026.22 1025.90
Thickness
5614 5612 5611 5610 5610 5607 5607 5605 5603 5601 5598 5594 5591 5589 5586 5583 5579 5576 5578 5585 5583 5577 5575 5577 5574 5574 5575 5579 5585 5590 5574 5588 5596 5600 5617 5633 5633 5641 5638 5630 5626 5619 5615 5619 5615
5607 5607 5606 5606 5606 5605 5603 5601 5598 5595 5591 5587 5584 5580 5576 5572 5568 5572 5578 5570 5567 5563 5562 5564 5563 5563 5561 5568 5571 5569 5569 5589 5602 5606 5599 5613 5628 5621 5625 5621 5612 5605 5598 5603 5601
5602 5602 5602 5602 5602 5601 5599 5597 5593 5588 5584 5580 5576 5571 5565 5559 5559 5569 5560 5556 5551 5548 5548 5553 5555 5552 5550 5560 5565 5566 5571 5587 5593 5591 5595 5595 5608 5619 5612 5607 5610 5602 5588 5587 5588
5600 5601 5601 5601 5600 5597 5595 5591 5587 5583 5578 5572 5566 5560 5553 5548 5551 5550 5544 5540 5536 5534 5534 5537 5539 5539 5542 5547 5561 5554 5570 5573 5580 5574 5582 5582 5597 5596 5599 5591 5594 5604 5590 5576 5576
5599 5599 5598 5596 5594 5592 5587 5584 5579 5575 5570 5562 5555 5547 5540 5540 5546 5534 5529 5525 5524 5524 5524 5525 5527 5530 5535 5546 5549 5551 5558 5569 5570 5563 5568 5572 5572 5576 5582 5579 5582 5579 5572 5564 5564
5596 5595 5594 5591 5589 5585 5580 5577 5572 5566 5559 5551 5544 5537 5530 5533 5529 5523 5516 5513 5512 5513 5516 5517 5521 5525 5528 5534 5539 5549 5552 5557 5557 5555 5555 5554 5560 5562 5570 5570 5568 5563 5555 5554 5556
5593 5591 5589 5586 5583 5579 5574 5570 5565 5556 5549 5541 5533 5525 5525 5522 5515 5510 5506 5504 5502 5501 5505 5509 5512 5510 5521 5519 5535 5534 5533 5540 5541 5545 5543 5543 5540 5549 5559 5558 5555 5553 5549 5544 5546
5588 5585 5583 5580 5576 5572 5567 5561 5555 5548 5538 5530 5521 5516 5517 5507 5501 5498 5497 5494 5491 5491 5492 5497 5498 5499 5507 5514 5518 5515 5515 5514 5537 5536 5532 5530 5536 5532 5544 5544 5543 5543 5541 5536 5534
5581 5580 5576 5573 5569 5563 5558 5552 5546 5537 5528 5518 5508 5502 5502 5491 5490 5486 5484 5485 5483 5482 5483 5486 5488 5493 5495 5493 5491 5505 5505 5512 5518 5530 5521 5519 5529 5521 5526 5532 5536 5533 5526 5524 5522
5575 5573 5569 5565 5560 5554 5548 5541 5533 5524 5514 5506 5500 5485 5486 5481 5477 5474 5473 5472 5475 5474 5473 5475 5475 5474 5478 5471 5466 5499 5496 5512 5508 5508 5513 5509 5509 5505 5511 5515 5521 5519 5514 5509 5508
5568 5565 5561 5556 5551 5545 5539 5531 5521 5515 5512 5492 5485 5481 5471 5467 5463 5465 5462 5465 5466 5466 5461 5467 5460 5460 5470 5481 5479 5488 5485 5505 5478 5490 5502 5503 5506 5503 5495 5493 5488 5495 5501 5500 5501
5560 5558 5554 5549 5543 5536 5530 5520 5492 5478 5485 5483 5475 5467 5459 5453 5456 5452 5454 5454 5459 5453 5465 5457 5443 5455 5468 5472 5474 5478 5476 5480 5481 5481 5484 5491 5490 5463 5462 5458 5457 5458 5461 5471 5487
5556 5552 5548 5542 5535 5526 5512 5495 5481 5471 5466 5472 5464 5455 5449 5448 5445 5441 5442 5447 5454 5455 5461 5444 5441 5448 5453 5455 5457 5460 5454 5469 5461 5470 5471 5473 5468 5441 5430 5430 5437 5437 5440 5448 5452
5551 5547 5541 5536 5528 5520 5503 5485 5472 5461 5462 5461 5457 5444 5445 5443 5438 5436 5434 5435 5447 5439 5445 5431 5433 5434 5439 5431 5426 5447 5438 5442 5446 5441 5430 5444 5422 5418 5413 5412 5407 5408 5415 5421 5428
5545 5540 5534 5525 5516 5509 5487 5475 5464 5453 5450 5447 5443 5439 5440 5431 5426 5427 5426 5431 5425 5424 5424 5407 5413 5413 5424 5403 5407 5414 5426 5430 5426 5418 5412 5438 5415 5419 5420 5392 5386 5384 5396 5405 5412
5540 5532 5527 5519 5511 5490 5478 5467 5456 5455 5432 5436 5433 5422 5420 5421 5416 5416 5413 5410 5413 5413 5401 5391 5396 5387 5389 5396 5399 5407 5414 5415 5413 5401 5365 5433 5428 5390 5376 5369 5373 5373 5381 5390 5396
5534 5526 5519 5508 5493 5482 5470 5462 5461 5442 5431 5412 5402 5403 5404 5394 5398 5393 5384 5367 5359 5359 5392 5385 5374 5370 5371 5384 5387 5385 5390 5371 5369 5363 5375 5395 5408 5357 5351 5361 5361 5367 5374 5381 5382
5527 5518 5512 5500 5488 5475 5465 5463 5433 5424 5404 5400 5390 5394 5391 5382 5381 5374 5369 5352 5349 5347 5358 5370 5363 5332 5342 5348 5359 5364 5352 5383 5419 5401 5391 5383 5385 5341 5346 5352 5354 5354 5360 5370 5367
5520 5515 5505 5494 5482 5467 5459 5429 5399 5386 5381 5375 5384 5383 5385 5377 5362 5360 5336 5324 5331 5329 5309 5328 5340 5329 5336 5337 5339 5350 5330 5344 5359 5374 5380 5354 5325 5334 5339 5337 5336 5341 5349 5352 5357
5518 5512 5496 5487 5477 5462 5450 5414 5391 5378 5369 5368 5371 5374 5358 5356 5344 5346 5321 5319 5318 5324 5324 5318 5307 5334 5328 5328 5328 5331 5334 5339 5336 5359 5374 5374 5321 5318 5309 5319 5324 5325 5331 5339 5341
5507 5507 5487 5481 5474 5454 5421 5397 5383 5374 5364 5354 5351 5345 5341 5334 5328 5331 5306 5302 5310 5312 5320 5316 5293 5320 5326 5286 5295 5317 5325 5320 5329 5330 5340 5368 5285 5294 5296 5301 5306 5310 5317 5323 5324
5501 5493 5475 5474 5452 5427 5393 5381 5374 5362 5354 5350 5343 5331 5322 5321 5319 5321 5308 5298 5302 5307 5305 5313 5292 5303 5289 5277 5279 5281 5283 5288 5295 5328 5312 5303 5271 5277 5279 5283 5293 5290 5303 5312 5314
5483 5476 5465 5459 5430 5407 5390 5370 5358 5349 5338 5333 5327 5321 5319 5312 5303 5308 5305 5300 5294 5292 5285 5292 5287 5271 5263 5263 5281 5280 5270 5259 5253 5259 5284 5280 5256 5272 5273 5265 5270 5270 5274 5285 5291
5468 5457 5450 5434 5412 5400 5383 5369 5356 5342 5333 5326 5319 5318 5306 5308 5307 5295 5294 5293 5290 5290 5294 5286 5274 5280 5270 5267 5286 5258 5262 5254 5238 5262 5248 5250 5247 5256 5247 5249 5261 5260 5262 5265 5274
5447 5425 5407 5407 5396 5386 5374 5362 5351 5335 5331 5320 5318 5305 5293 5273 5290 5294 5286 5291 5287 5289 5286 5266 5250 5274 5268 5278 5275 5264 5267 5246 5218 5218 5234 5240 5229 5222 5233 5236 5240 5249 5258 5265 5268
5417 5401 5394 5398 5388 5381 5366 5351 5339 5332 5319 5312 5302 5297 5295 5276 5265 5249 5263 5272 5268 5273 5274 5266 5253 5275 5265 5279 5281 5273 5277 5266 5249 5230 5215 5227 5227 5219 5233 5227 5231 5238 5246 5249 5254
5407 5398 5386 5389 5384 5372 5354 5345 5334 5325 5316 5309 5298 5292 5294 5278 5272 5272 5271 5270 5264 5252 5249 5243 5234 5249 5268 5275 5272 5257 5257 5254 5238 5231 5213 5218 5219 5223 5228 5233 5228 5225 5226 5235 5240